Wetbulb
53.78 53.82 53.84 53.69 53.54 53.45 53.70 53.68 53.79 53.88 53.87 53.96 53.74 53.68 53.51 53.85 53.90 47.68 41.38 46.20 48.97 55.35 55.82 51.62 51.72 50.30 49.38 44.76 46.98 46.11 36.44 34.48 36.93 36.77 39.14 39.05 39.33 44.58 48.10 47.57 49.47 49.18 52.25 65.87 71.17
53.52 53.54 53.58 53.39 53.43 53.32 53.36 53.34 53.49 53.69 53.77 53.67 53.18 52.85 52.65 54.20 47.68 42.72 49.56 53.99 55.38 57.41 51.63 47.43 45.47 48.00 42.62 42.04 43.17 41.71 38.05 38.44 40.89 41.23 39.48 40.25 39.14 44.84 47.80 47.99 49.63 50.71 52.13 60.48 71.09
53.11 53.26 53.24 53.28 53.17 53.00 53.07 53.13 53.46 53.62 53.69 53.66 53.28 52.83 52.60 52.64 38.69 39.43 53.76 57.16 58.06 56.48 52.66 51.01 49.15 46.88 41.15 39.66 40.48 40.70 40.48 44.83 43.35 45.14 45.15 43.67 43.37 46.56 46.41 45.83 48.79 49.45 50.50 64.31 69.69
52.66 52.85 52.83 52.85 52.71 52.79 52.93 53.14 53.48 53.57 53.59 53.26 52.71 52.16 52.69 48.21 31.01 43.57 58.14 57.76 57.60 52.10 50.78 49.93 46.27 39.63 39.15 38.62 40.49 35.87 42.85 46.21 45.33 47.78 46.90 45.41 47.08 46.47 47.20 48.37 51.39 52.68 51.58 67.73 68.69
52.41 52.60 52.60 52.41 52.47 52.63 53.03 53.27 53.56 53.60 53.54 53.20 53.06 52.29 48.99 39.52 39.53 48.69 55.46 53.72 49.53 48.06 48.96 46.94 41.13 39.17 36.10 38.16 40.04 37.35 39.93 42.64 46.92 48.32 47.59 48.83 47.94 47.55 48.17 50.91 53.24 52.89 51.77 66.31 68.99
52.21 52.21 52.00 52.13 52.23 52.50 53.12 53.41 53.59 53.55 53.56 53.40 53.19 52.55 46.77 37.16 47.72 49.87 49.56 48.92 48.01 44.19 41.85 44.32 42.55 41.81 38.54 39.66 38.50 40.94 41.62 43.23 44.23 42.31 44.52 47.07 47.97 49.17 49.71 51.54 51.42 50.45 49.39 58.90 68.99
52.17 52.04 51.93 52.10 52.14 52.52 53.30 53.44 53.77 53.57 54.63 54.37 54.05 50.88 45.53 41.00 49.16 49.03 48.83 47.24 47.60 47.17 43.93 44.84 45.59 43.82 40.59 38.39 42.13 41.66 37.74 41.19 42.21 40.99 42.08 43.99 42.06 44.27 50.13 51.74 51.09 50.06 49.01 51.81 64.78
52.33 52.58 51.93 52.08 52.29 52.60 53.12 53.61 53.69 54.31 55.31 55.13 54.65 50.35 40.40 49.83 49.76 49.06 47.80 47.22 48.26 48.18 47.09 47.66 46.19 42.77 41.01 43.85 43.49 39.88 37.96 34.14 40.65 41.96 43.09 43.90 37.35 45.26 47.83 47.97 48.00 48.94 48.66 48.45 54.60
52.37 52.14 51.66 52.01 52.45 52.74 53.16 53.30 53.88 55.07 54.89 55.38 48.49 46.08 40.47 51.81 48.56 51.15 50.01 47.22 48.50 47.51 47.31 49.69 43.87 39.19 39.30 36.59 34.16 35.67 30.45 32.30 35.97 41.30 42.02 41.85 39.28 45.06 47.15 46.72 46.36 47.09 47.52 47.76 46.40
52.18 51.97 51.88 51.81 52.23 52.72 52.77 52.86 53.41 53.56 53.77 52.95 50.71 41.14 42.89 43.48 47.66 49.58 51.03 50.38 46.74 46.46 44.18 42.58 39.21 34.41 34.02 35.45 28.77 31.49 30.53 34.01 34.52 39.07 41.15 40.37 40.00 43.90 45.53 46.78 46.42 46.66 46.92 46.63 47.15
51.45 51.66 51.57 52.00 52.00 52.62 49.86 44.47 40.57 38.47 44.80 39.01 40.73 41.70 43.19 46.38 49.66 48.33 50.69 48.16 46.90 43.80 36.19 38.29 31.07 28.82 33.77 37.19 38.59 37.37 34.55 33.44 37.81 42.37 39.33 39.26 40.70 43.19 44.91 45.15 44.93 45.64 45.99 45.76 46.57
51.18 51.29 51.52 52.09 52.60 52.09 45.19 41.32 43.02 42.33 37.34 44.77 44.57 43.49 46.24 46.35 43.37 46.95 50.65 43.43 40.67 36.07 38.82 34.71 30.78 35.09 37.10 37.05 36.47 36.81 32.76 32.46 37.29 41.99 40.49 39.15 39.70 43.19 44.34 44.83 45.64 45.92 45.82 46.21 45.68
51.28 51.15 51.48 51.78 51.58 46.28 42.03 44.27 46.60 43.88 36.27 40.62 44.26 43.73 44.95 45.88 42.81 43.88 46.70 43.62 40.74 37.74 36.64 33.04 34.81 39.74 37.51 35.12 34.05 34.92 34.59 33.62 33.77 39.94 42.62 39.91 37.27 39.92 43.87 45.74 46.33 46.61 47.21 46.94 46.08
50.97 51.03 51.40 51.10 44.73 42.53 42.85 46.29 46.77 44.56 29.19 35.48 39.62 43.31 44.75 44.10 40.85 47.72 48.68 44.53 40.07 35.15 36.21 34.67 38.96 37.97 36.66 34.42 35.36 29.98 38.09 38.57 37.79 36.65 30.67 39.43 27.84 36.64 41.39 43.70 45.59 46.14 44.89 46.33 46.48
50.89 51.15 51.24 50.30 42.39 41.42 45.08 44.08 43.46 41.64 15.76 38.19 39.38 46.86 45.63 40.24 41.45 42.31 48.83 44.17 38.49 38.71 38.11 34.32 34.90 34.39 33.73 34.44 37.48 33.22 38.70 36.74 37.32 33.79 31.42 34.86 30.41 34.19 39.46 40.43 43.24 45.81 47.09 44.87 46.30
50.55 51.03 50.60 45.93 43.08 45.25 46.37 43.82 43.20 28.07 19.49 34.59 40.02 39.09 38.56 40.44 40.62 42.62 43.10 46.36 44.72 39.03 40.44 38.13 41.99 38.86 36.75 39.35 39.46 40.63 37.50 36.44 34.45 34.33 28.10 32.39 32.50 30.96 35.63 41.00 44.06 45.90 45.35 45.45 46.02
50.48 50.38 48.43 48.06 42.72 44.30 43.99 41.04 28.56 21.85 36.44 33.63 34.71 38.14 37.15 35.91 37.75 38.78 37.63 36.89 35.88 30.10 31.02 37.03 37.55 40.13 41.14 36.13 39.79 37.97 31.84 23.61 23.83 24.33 24.96 33.41 31.88 34.41 39.81 42.59 44.58 45.77 44.14 45.39 46.41
49.64 48.67 47.36 48.39 46.03 45.99 41.18 33.67 23.36 32.07 32.70 38.89 37.90 36.92 33.22 37.12 36.64 37.70 35.93 35.28 39.22 36.36 32.31 29.79 29.45 37.54 40.39 36.90 34.83 34.21 32.16 24.11 20.44 22.94 25.00 34.26 29.23 34.61 44.05 46.31 45.87 46.70 45.50 45.82 45.52
48.13 42.67 43.99 46.43 47.76 43.59 36.96 24.28 25.50 32.99 38.44 36.42 36.46 32.38 32.08 35.81 36.12 35.82 34.69 35.60 38.36 37.19 30.50 28.40 30.98 40.28 41.01 41.41 38.49 34.26 31.71 35.30 29.03 32.08 24.88 29.09 35.74 40.50 42.85 43.85 44.70 45.85 45.30 46.12 46.67
41.73 40.13 42.50 47.37 44.27 40.64 33.32 30.57 31.60 40.05 39.56 37.92 31.08 34.45 30.03 32.42 33.82 34.21 33.85 38.29 36.90 39.73 39.53 35.09 28.54 37.01 39.54 42.24 40.78 36.87 38.91 30.00 32.45 22.51 22.54 28.08 32.37 33.34 37.43 41.09 43.30 45.75 43.48 44.38 44.62
38.70 37.74 44.62 46.10 43.43 36.70 26.15 27.80 35.45 41.27 40.20 36.39 34.43 32.72 33.69 34.67 34.08 33.14 34.68 37.95 40.23 39.45 39.26 37.53 34.16 31.65 37.03 36.00 35.17 35.62 33.04 33.23 35.26 30.82 23.64 25.59 28.34 40.50 41.47 44.02 46.23 47.21 44.15 42.53 44.76
37.89 31.00 43.47 43.31 33.61 31.15 29.27 34.55 40.12 39.36 40.34 39.00 37.67 36.32 35.96 35.13 33.05 33.08 34.83 37.01 41.47 40.93 35.26 37.93 33.09 25.54 29.62 37.83 39.69 39.66 35.65 33.77 27.12 26.70 30.41 26.98 27.77 45.85 46.97 47.60 48.41 50.20 46.95 49.43 58.05
37.57 34.76 42.46 39.80 26.63 27.25 32.51 34.75 37.48 36.30 36.88 36.70 35.19 39.09 39.14 35.49 31.51 34.50 36.18 40.90 41.56 39.28 36.29 38.09 33.32 24.07 29.07 34.00 39.57 35.86 36.51 35.65 35.00 35.15 31.25 26.62 33.03 50.25 51.51 53.00 54.33 53.23 55.32 59.42 62.13
34.42 30.01 33.77 33.28 33.26 28.77 28.96 31.11 32.50 38.83 36.91 37.25 36.46 39.45 35.86 34.05 36.22 33.68 33.62 38.72 41.01 39.46 43.63 42.56 33.92 30.89 26.28 30.95 34.44 32.71 36.10 36.34 33.77 31.82 33.32 34.27 39.50 45.59 51.70 50.28 55.21 55.37 58.21 60.01 60.82
33.70 29.15 32.41 25.58 28.65 30.97 30.43 31.98 31.49 31.68 36.70 36.32 36.65 35.93 34.27 31.48 32.39 32.82 35.92 36.48 39.09 40.44 40.76 38.53 31.91 33.14 32.48 33.49 33.94 33.41 34.07 36.77 33.18 35.68 34.35 37.48 40.42 44.17 48.32 53.31 54.88 57.00 57.72 56.93 55.91
31.56 30.39 33.29 33.72 32.34 30.65 31.13 29.78 31.50 32.72 33.76 32.68 33.83 35.68 35.48 32.93 33.90 31.93 34.55 34.76 35.21 37.73 34.02 33.77 30.51 34.55 32.28 34.69 34.34 32.10 34.70 35.55 37.32 38.70 40.52 39.69 40.26 48.05 50.33 53.16 53.81 53.74 53.56 52.36 52.08
36.66 36.76 36.93 32.26 29.53 28.18 28.46 31.02 32.28 34.92 35.68 37.00 36.10 34.46 34.38 35.11 38.61 38.60 38.80 38.33 37.85 34.42 31.78 31.78 31.19 30.44 29.47 34.75 33.36 31.71 34.98 36.55 38.15 41.33 41.06 35.46 41.77 47.48 48.30 51.01 51.04 50.78 50.19 49.36 49.61
MSLP
1019.81 1019.32 1018.87 1018.41 1017.95 1017.52 1017.14 1016.83 1016.48 1016.03 1015.66 1015.29 1014.85 1014.47 1014.00 1013.45 1012.87 1012.47 1011.88 1009.69 1009.60 1009.32 1009.41 1009.25 1008.99 1008.87 1009.18 1009.14 1009.06 1009.08 1009.60 1008.09 1007.04 1006.59 1005.00 1004.04 1003.70 1003.09 1002.39 1002.12 1001.59 1001.48 1001.15 1000.39 1000.92
1019.76 1019.20 1018.68 1018.17 1017.68 1017.24 1016.88 1016.54 1016.10 1015.67 1015.25 1014.83 1014.59 1014.39 1014.04 1013.41 1012.71 1011.34 1009.19 1008.99 1008.90 1008.96 1009.18 1009.21 1009.07 1009.01 1009.20 1009.01 1008.69 1008.69 1008.01 1006.63 1005.91 1005.43 1004.61 1004.25 1003.94 1003.49 1002.84 1002.28 1001.36 1001.23 1000.88 1000.34 1000.64
1019.73 1019.10 1018.41 1017.79 1017.24 1016.74 1016.40 1015.98 1015.51 1015.07 1014.74 1014.61 1014.37 1014.08 1013.72 1013.22 1012.66 1009.62 1008.28 1008.70 1008.77 1008.47 1008.47 1008.51 1008.94 1009.05 1009.03 1008.68 1008.24 1007.60 1006.04 1006.07 1005.07 1004.78 1004.44 1004.32 1003.94 1003.53 1002.85 1001.99 1001.36 1001.29 1000.92 999.99 1000.15
1019.68 1019.05 1018.32 1017.68 1016.98 1016.36 1015.95 1015.55 1015.05 1014.58 1014.26 1014.16 1013.98 1013.77 1013.49 1013.33 1011.94 1008.72 1008.36 1008.70 1008.42 1008.26 1007.98 1008.18 1008.80 1009.18 1008.92 1008.29 1007.69 1007.24 1005.99 1005.56 1004.98 1004.76 1004.36 1003.98 1003.66 1002.96 1002.39 1001.19 1001.12 1001.08 1000.93 1000.44 1000.01
1019.65 1018.98 1018.25 1017.62 1016.80 1016.08 1015.52 1014.98 1014.58 1014.08 1013.75 1013.65 1013.65 1013.63 1013.54 1013.26 1011.24 1008.72 1008.55 1008.59 1008.58 1008.36 1008.32 1008.31 1008.61 1008.78 1008.70 1008.14 1007.72 1006.95 1006.00 1005.30 1005.02 1004.71 1004.12 1003.92 1003.41 1002.68 1001.20 1001.37 1000.97 1000.95 1000.86 1000.61 1000.30
1019.48 1018.81 1018.04 1017.31 1016.45 1015.73 1015.00 1014.20 1014.08 1013.70 1013.40 1013.22 1013.19 1013.50 1013.66 1012.64 1009.23 1008.68 1008.66 1008.59 1008.54 1008.50 1008.23 1008.34 1008.25 1008.11 1008.17 1007.77 1007.48 1006.34 1006.04 1005.52 1004.93 1004.52 1004.31 1003.97 1002.84 1002.28 1000.98 1000.96 1000.88 1000.88 1000.70 1000.35 1000.30
1019.24 1018.55 1017.82 1017.00 1016.12 1015.38 1014.53 1013.68 1012.88 1013.09 1012.67 1012.60 1012.79 1013.32 1013.21 1011.12 1008.77 1008.64 1008.79 1008.29 1008.01 1008.21 1008.13 1007.71 1007.71 1008.28 1007.82 1007.67 1006.87 1006.30 1006.09 1005.40 1004.51 1004.34 1004.20 1004.06 1002.34 999.21 1001.26 1001.22 1000.83 1000.71 1000.44 1000.36 999.95
1018.90 1018.11 1017.46 1016.57 1015.74 1014.89 1014.01 1013.00 1012.16 1012.35 1011.93 1012.06 1012.57 1013.04 1011.85 1009.28 1008.68 1008.52 1008.13 1007.55 1007.16 1007.68 1007.74 1007.13 1007.24 1007.48 1007.80 1007.51 1007.03 1006.46 1005.91 1005.38 1003.43 1004.07 1003.92 1003.74 999.51 1000.20 1000.77 1000.93 1000.69 1000.57 1000.31 1000.32 999.98
1018.56 1017.75 1017.15 1016.42 1015.56 1014.66 1013.79 1012.50 1011.53 1011.66 1011.72 1012.13 1012.80 1012.76 1010.68 1008.66 1008.40 1006.98 1007.39 1007.15 1006.34 1006.48 1006.85 1006.70 1007.37 1007.29 1007.54 1007.60 1007.71 1006.92 1005.97 1004.87 1004.30 1003.40 1003.38 1002.67 999.86 1000.23 1000.51 1000.73 1000.51 1000.57 1000.39 1000.50 1000.74
1018.31 1017.60 1016.81 1016.12 1015.36 1014.40 1013.36 1011.83 1010.93 1011.63 1012.08 1012.46 1012.53 1012.77 1010.00 1008.17 1007.13 1006.46 1006.07 1005.99 1005.90 1005.94 1006.45 1006.82 1006.98 1007.13 1007.03 1007.28 1006.55 1005.93 1005.93 1005.03 1004.16 1003.28 1002.77 1002.14 1000.55 1000.37 1000.09 1000.19 1000.25 1000.39 1000.38 1000.64 1001.28
1018.15 1017.38 1016.53 1015.46 1014.68 1014.12 1013.36 1012.13 1012.10 1011.95 1011.80 1011.60 1010.79 1010.30 1008.64 1007.39 1006.73 1005.92 1005.47 1005.47 1005.58 1005.96 1006.45 1006.34 1006.62 1006.19 1005.98 1006.33 1006.20 1006.05 1005.71 1005.14 1004.48 1003.48 1002.95 1001.75 1000.89 1000.28 1000.33 1000.38 1000.18 999.84 1000.21 1000.64 1000.93
1018.11 1017.06 1016.05 1015.03 1014.13 1013.69 1013.72 1013.11 1012.45 1012.23 1011.37 1009.58 1009.07 1008.80 1007.53 1007.09 1006.55 1005.49 1005.11 1005.73 1005.91 1006.25 1006.45 1006.67 1005.74 1005.70 1005.95 1005.91 1005.95 1005.83 1005.59 1005.11 1004.50 1003.94 1003.08 1001.92 1000.76 1000.19 999.89 999.66 999.68 999.63 999.63 1000.24 1001.16
1017.65 1016.78 1015.61 1014.50 1013.71 1013.33 1013.37 1012.32 1011.75 1011.95 1012.13 1009.67 1008.31 1007.74 1007.06 1006.88 1006.23 1005.47 1005.44 1005.66 1005.99 1006.04 1006.11 1006.10 1005.48 1005.30 1005.37 1005.39 1005.51 1005.37 1005.17 1005.01 1004.71 1004.28 1003.14 1002.43 1000.92 999.98 999.04 998.94 998.94 998.89 998.64 999.41 1000.44
1016.95 1016.26 1015.58 1014.43 1013.73 1013.62 1012.57 1011.42 1011.54 1011.84 1012.01 1009.69 1007.95 1006.91 1006.54 1006.37 1006.10 1005.12 1005.15 1005.88 1006.12 1005.91 1005.76 1005.46 1005.10 1005.12 1004.83 1004.69 1004.87 1004.92 1005.00 1004.66 1004.67 1004.53 1003.94 1002.52 1001.27 999.70 999.02 998.35 998.50 998.36 998.67 998.90 999.73
1016.42 1015.51 1015.06 1014.78 1014.13 1013.54 1011.71 1011.60 1011.56 1011.82 1011.67 1009.16 1007.81 1006.52 1006.63 1006.85 1006.22 1005.40 1005.50 1005.79 1005.98 1005.91 1006.28 1005.10 1004.68 1004.65 1004.85 1004.24 1004.78 1004.21 1004.95 1005.02 1004.85 1004.57 1004.49 1003.07 1002.79 999.76 998.66 998.22 997.55 997.32 997.78 998.79 998.91
1015.96 1014.89 1014.42 1014.19 1014.19 1011.96 1011.43 1011.43 1011.82 1012.73 1011.12 1009.35 1008.15 1007.46 1007.26 1006.63 1006.21 1005.73 1005.74 1005.78 1005.94 1005.91 1005.04 1004.80 1004.15 1003.96 1003.75 1003.72 1003.88 1004.25 1004.85 1005.21 1005.26 1005.14 1004.58 1002.97 1002.52 1000.02 998.43 997.01 996.22 996.47 997.52 998.30 998.57
1015.24 1013.97 1013.56 1013.36 1012.39 1011.62 1011.35 1011.69 1012.44 1012.14 1011.06 1010.03 1009.08 1008.25 1007.77 1007.21 1006.80 1006.54 1006.05 1006.15 1006.48 1006.44 1005.46 1004.19 1003.62 1003.23 1003.24 1003.40 1003.41 1004.12 1004.85 1005.61 1005.56 1005.32 1004.03 1002.58 1002.07 999.45 997.38 996.40 995.91 996.17 996.93 997.76 998.12
1014.75 1013.50 1013.04 1012.30 1011.63 1011.51 1011.90 1012.56 1012.86 1011.83 1011.32 1010.51 1009.54 1008.70 1008.35 1007.80 1007.43 1006.93 1006.54 1006.74 1006.62 1006.56 1006.09 1005.09 1003.46 1003.19 1002.39 1002.59 1003.05 1003.59 1004.29 1004.60 1004.28 1004.20 1003.47 1002.02 1000.36 997.86 996.26 996.01 995.99 996.06 996.42 997.05 997.64
1014.84 1013.62 1013.08 1011.67 1011.27 1011.63 1012.60 1013.28 1013.12 1012.24 1011.38 1010.57 1009.56 1009.03 1008.75 1008.52 1008.59 1007.61 1006.95 1006.90 1006.74 1006.81 1006.85 1005.92 1004.19 1003.38 1002.70 1002.11 1002.37 1003.20 1003.57 1003.62 1003.93 1003.32 1002.71 1001.29 999.16 997.12 996.23 996.22 996.04 996.08 996.57 996.65 997.22
1016.02 1015.00 1013.10 1011.48 1011.21 1011.89 1013.07 1013.64 1012.87 1011.94 1011.35 1010.89 1010.51 1010.30 1009.62 1009.09 1008.75 1008.10 1007.17 1006.60 1006.55 1006.65 1006.63 1006.23 1004.85 1002.71 1002.23 1002.26 1001.93 1002.18 1002.45 1003.63 1004.19 1003.30 1002.36 1000.73 998.73 997.14 996.33 996.14 996.38 996.42 996.59 996.91 997.21
1016.40 1015.30 1012.95 1011.66 1011.66 1013.26 1014.87 1014.75 1013.25 1012.17 1011.57 1011.29 1010.60 1010.45 1010.21 1009.68 1009.09 1008.22 1007.20 1006.51 1006.50 1006.40 1006.68 1006.20 1005.73 1003.60 1002.80 1001.81 1001.31 1001.97 1001.82 1002.51 1003.08 1003.06 1001.40 1000.48 998.74 997.09 996.89 996.88 996.87 997.06 996.94 997.07 997.54
1017.82 1016.23 1013.62 1012.40 1014.01 1015.81 1016.00 1015.35 1013.98 1012.52 1011.83 1011.29 1010.81 1010.58 1010.42 1010.03 1008.92 1008.23 1007.00 1006.83 1006.52 1006.58 1006.62 1006.10 1005.80 1004.44 1002.97 1001.80 1001.89 1001.51 1001.56 1001.82 1002.30 1002.39 1001.41 1000.14 998.96 997.65 997.11 997.02 997.08 997.12 996.93 997.33 997.34
1018.68 1017.34 1014.58 1014.17 1016.48 1017.40 1016.92 1015.96 1014.68 1013.32 1012.27 1011.63 1011.30 1010.58 1010.52 1010.29 1009.24 1007.85 1006.87 1006.20 1006.23 1006.40 1006.41 1006.11 1005.67 1004.73 1003.03 1002.28 1001.76 1001.56 1001.24 1001.03 1001.24 1001.43 1000.97 1000.21 999.13 997.67 997.14 996.96 997.04 997.04 997.16 997.54 998.10
1019.33 1018.76 1017.47 1017.48 1018.13 1018.35 1017.71 1016.37 1015.23 1014.05 1012.79 1012.00 1011.43 1010.81 1010.68 1009.91 1009.20 1007.64 1006.65 1006.15 1006.06 1005.76 1005.32 1005.53 1005.16 1004.64 1003.65 1002.73 1002.35 1001.50 1000.90 1000.75 1000.68 1001.20 1000.65 1000.34 999.44 998.72 998.02 997.72 997.48 997.75 997.93 998.12 998.62
1020.31 1021.02 1020.49 1019.67 1019.00 1019.06 1018.52 1016.96 1015.72 1014.95 1013.60 1012.42 1011.46 1011.11 1010.69 1009.50 1008.13 1006.94 1006.29 1005.70 1005.13 1004.60 1004.56 1004.68 1004.66 1004.19 1003.16 1002.24 1002.04 1001.38 1000.81 1000.58 1000.16 1000.11 1000.49 1000.37 1000.01 999.78 999.24 998.84 998.58 998.76 999.04 999.69 1000.47
1021.57 1021.66 1020.92 1020.31 1019.80 1019.15 1018.20 1017.27 1016.27 1015.11 1014.70 1012.78 1012.00 1010.91 1010.33 1009.67 1008.91 1006.90 1006.66 1005.14 1005.40 1005.19 1005.23 1005.33 1004.68 1003.76 1002.38 1001.32 1001.19 1000.84 1000.05 999.78 999.68 999.60 1000.02 1000.45 1000.49 1000.46 999.84 999.55 999.56 999.83 1000.56 1001.24 1001.96
1021.70 1021.45 1021.37 1020.15 1019.96 1019.45 1018.43 1017.57 1016.45 1015.90 1014.05 1013.13 1012.25 1011.14 1009.18 1008.13 1007.39 1006.03 1005.33 1004.75 1005.16 1005.12 1005.28 1005.22 1004.70 1003.61 1001.81 1000.54 1000.83 1000.24 998.97 999.16 998.80 998.97 999.66 1000.60 1001.05 1001.41 1000.97 1000.52 1000.66 1001.40 1002.06 1002.76 1003.34
Wind_Speed
20 20 20 20 21 21 21 21 21 20 20 19 19 18 18 19 20 9 8 12 10 14 11 6 5 4 2 5 5 5 4 12 13 10 12 1 2 2 3 7 3 7 5 11 19
22 22 21 22 22 22 21 21 20 20 19 18 17 16 17 19 16 10 12 10 11 9 2 3 3 4 4 5 6 6 8 12 5 8 8 5 2 3 3 6 12 9 6 10 22
22 22 22 22 23 23 22 21 20 19 18 17 16 14 14 12 5 7 4 11 9 15 7 8 4 4 6 5 7 7 14 14 6 7 9 8 4 5 3 12 9 8 9 8 21
23 23 23 24 25 25 24 22 21 20 19 16 13 11 11 4 7 1 11 9 17 13 4 6 6 3 5 10 6 6 10 17 2 14 9 5 3 6 9 15 8 7 8 12 20
23 23 24 24 26 26 24 23 21 20 19 16 12 8 5 2 13 5 11 12 9 5 3 6 6 6 5 4 4 7 6 4 13 13 10 8 11 10 16 8 11 8 7 10 16
24 24 25 25 26 26 25 24 19 19 17 13 8 5 1 7 5 6 6 7 6 2 2 4 7 8 4 6 5 2 7 15 13 9 5 15 20 15 3 4 8 7 8 10 18
24 25 26 26 26 26 25 25 25 18 14 8 6 4 4 16 4 3 5 7 5 5 4 5 7 4 2 7 7 8 8 11 11 3 8 4 19 33 11 11 16 10 9 8 14
25 25 28 27 27 27 26 27 27 20 10 4 8 4 9 6 6 10 6 8 9 10 12 9 7 7 5 6 6 6 4 12 9 10 8 13 32 12 7 9 12 10 8 7 9
26 26 28 28 27 28 26 28 27 12 2 12 6 3 12 7 5 11 9 7 12 5 8 8 5 6 2 3 3 5 5 8 7 7 7 18 19 14 8 8 10 9 8 6 2
26 27 27 27 27 26 26 27 17 4 9 6 2 2 6 7 8 7 7 8 12 6 3 6 5 6 6 9 16 12 4 4 3 4 14 15 17 8 4 12 12 10 9 7 8
29 26 27 27 26 21 15 6 8 5 3 7 11 7 17 7 8 7 6 5 1 2 6 5 4 10 18 13 13 12 10 7 4 8 6 19 19 15 6 7 10 10 9 7 6
29 29 28 26 25 24 1 3 5 2 10 8 13 9 10 5 6 12 4 3 2 6 3 2 11 9 6 6 11 15 11 13 12 11 7 10 14 10 10 10 10 11 10 9 8
27 27 28 28 28 3 2 5 2 3 3 9 6 4 8 3 6 7 3 1 5 8 9 15 5 12 10 11 13 13 17 14 15 13 15 7 8 9 9 9 8 11 9 9 13
30 27 25 27 4 4 6 1 2 4 4 7 4 4 5 11 4 8 3 3 3 6 5 7 7 12 11 13 14 13 9 13 13 9 7 5 7 8 10 14 13 12 9 9 10
31 30 25 13 4 2 4 3 2 5 4 8 1 5 16 5 9 4 2 2 6 12 4 6 5 10 17 21 11 13 8 8 10 7 4 11 1 8 6 11 14 18 15 9 11
33 31 24 2 1 8 7 5 5 7 5 8 6 18 17 17 8 5 4 1 1 6 8 12 6 5 14 15 18 6 4 4 9 5 7 12 7 5 5 15 19 12 9 12 11
36 33 13 3 5 2 3 4 5 4 5 7 15 14 19 5 11 6 11 3 4 7 4 4 12 6 6 7 5 5 11 4 6 7 5 9 7 13 7 7 10 14 8 11 10
38 25 3 5 3 5 4 6 4 2 8 10 13 21 5 9 9 9 6 3 3 3 5 5 2 2 11 8 7 8 9 5 6 7 8 9 9 10 23 17 6 5 10 10 10
29 5 4 5 4 3 6 5 4 5 12 13 17 5 4 8 3 7 5 2 3 5 3 4 5 6 8 5 10 6 11 9 2 2 3 5 7 6 9 8 6 9 9 14 13
6 4 5 12 3 5 6 3 2 8 13 13 4 5 11 10 9 10 5 4 2 2 1 3 8 5 5 9 10 5 9 8 2 6 6 6 18 9 3 9 7 5 9 9 9
4 5 5 14 4 7 3 5 6 14 11 6 6 7 5 8 13 7 6 4 3 1 7 6 4 4 0 4 8 5 6 3 5 3 5 10 7 1 3 2 6 4 8 10 9
4 4 5 7 7 2 2 7 8 7 6 5 5 2 4 13 9 7 6 6 4 3 6 3 3 5 8 7 6 11 6 5 6 5 4 2 5 5 6 6 2 6 7 8 17
5 4 4 6 5 4 6 7 5 10 12 4 5 4 3 11 9 9 9 4 4 3 3 3 3 5 6 5 1 4 6 5 4 3 4 2 4 6 4 4 4 6 14 17 21
3 6 6 6 2 2 4 5 10 12 13 8 8 7 12 15 10 11 18 9 12 27 24 13 6 6 5 2 1 4 4 7 6 4 3 1 4 7 4 6 9 10 14 19 21
5 1 0 6 4 7 4 4 9 13 5 7 4 7 17 9 19 7 14 21 10 9 1 2 5 8 14 14 11 9 9 6 12 7 4 5 2 5 6 5 11 12 15 16 19
3 4 4 7 7 5 6 5 8 16 5 8 6 21 19 11 15 26 22 22 5 3 1 1 3 3 8 17 13 11 11 9 6 11 7 6 2 3 5 4 13 14 17 17 19
3 3 1 4 4 4 3 6 12 16 9 12 15 20 19 12 20 28 24 23 14 5 3 3 2 2 3 13 11 7 15 10 6 11 10 5 5 5 4 6 16 17 17 18 19
Wind_Direction
348 346 344 340 336 334 332 332 331 328 327 325 325 325 324 321 313 295 239 225 195 254 293 306 295 177 184 198 205 140 199 229 224 200 236 358 125 183 214 222 280 208 202 251 133
345 343 341 337 333 330 329 329 326 323 320 318 319 321 323 319 312 273 243 221 226 272 217 221 260 192 182 213 199 172 215 225 201 194 248 248 95 351 307 318 294 296 273 310 147
341 339 335 332 329 326 326 324 321 316 314 317 320 319 321 315 324 259 237 201 230 333 250 187 224 224 201 174 206 205 232 227 235 229 242 262 255 215 249 272 237 267 302 233 161
338 336 332 330 327 324 324 323 319 314 314 314 316 316 311 298 313 240 343 321 326 311 277 156 192 224 209 210 211 253 229 237 159 243 266 248 236 246 218 247 270 304 291 195 168
336 334 331 330 326 324 322 317 313 310 307 308 305 311 340 306 248 278 303 310 329 349 338 192 191 164 209 221 220 242 244 270 235 247 263 283 267 254 255 263 283 289 282 214 192
335 334 331 330 326 325 321 313 309 308 305 300 289 279 237 281 245 252 272 294 270 228 256 152 213 211 245 230 230 260 222 254 265 254 254 259 273 258 285 249 256 266 272 223 208
335 333 332 332 328 326 320 314 309 315 310 284 227 178 233 249 257 271 326 257 199 202 248 208 220 201 206 315 265 263 278 274 243 210 232 201 267 247 251 274 274 274 274 228 204
336 333 333 333 330 326 321 314 309 316 313 155 172 171 253 252 272 284 187 278 238 228 225 251 221 203 160 279 319 298 187 246 248 189 225 169 256 257 194 204 248 257 275 235 181
334 331 332 333 330 326 321 311 303 321 262 130 132 171 270 303 257 254 186 249 275 203 202 242 141 196 204 206 338 246 240 227 291 203 190 194 254 249 203 207 243 241 252 238 185
333 331 330 329 328 323 319 302 301 93 105 157 133 284 261 299 281 288 232 257 250 260 217 191 194 190 186 211 219 223 220 267 202 296 199 236 246 272 278 207 215 238 238 218 157
331 331 330 326 325 324 329 354 14 355 169 217 244 231 277 257 297 257 289 308 246 125 201 223 170 208 210 218 238 264 273 287 323 251 245 229 251 244 227 220 224 231 213 203 192
331 330 330 325 323 323 286 21 225 234 312 299 249 222 252 256 275 304 342 290 197 252 225 294 228 223 219 213 243 254 255 269 288 287 264 270 251 240 210 215 211 219 230 207 136
329 329 328 325 323 16 244 229 311 69 280 294 249 268 265 240 267 279 22 301 269 271 244 229 218 215 210 214 229 242 249 241 253 287 291 293 279 235 240 212 200 220 209 190 160
327 329 330 330 346 320 285 234 70 121 34 277 319 278 322 324 255 293 191 198 277 280 260 233 216 223 235 234 209 229 244 241 234 231 243 162 284 224 221 236 220 232 212 197 162
326 327 331 315 270 305 250 29 295 66 1 302 318 264 324 355 289 314 56 132 243 274 265 224 229 213 209 246 228 224 210 254 262 258 336 272 310 267 191 223 225 220 212 185 194
327 327 331 91 205 244 329 353 62 48 273 321 354 318 334 325 318 302 289 166 304 295 244 248 264 186 210 220 212 145 166 259 232 261 241 235 186 266 205 207 224 225 181 179 193
327 326 318 182 235 62 328 46 33 89 351 300 317 329 320 294 324 316 323 343 334 341 323 265 225 203 185 193 171 121 155 199 182 214 227 199 204 244 241 226 214 215 179 178 192
328 324 243 233 317 20 42 43 34 343 297 306 312 313 273 6 314 311 306 353 291 235 284 328 288 278 180 177 180 173 179 167 176 172 212 194 211 239 234 252 262 268 174 181 187
329 330 317 268 265 113 74 56 214 294 322 321 315 303 285 327 296 318 313 264 268 39 333 325 272 172 294 234 164 182 191 189 130 236 113 188 257 303 234 253 223 217 181 193 190
326 334 292 328 48 66 70 270 231 292 343 323 293 304 307 323 308 340 287 192 258 152 159 282 284 240 257 230 231 173 157 173 209 176 182 183 220 219 190 205 241 253 202 187 178
22 12 299 339 52 43 93 261 297 323 346 308 291 285 284 318 312 300 270 262 238 45 356 246 244 285 154 223 172 170 179 161 130 242 189 174 233 255 184 303 264 286 210 176 134
350 355 320 357 51 35 356 298 300 307 333 302 303 281 283 320 284 283 245 198 274 28 307 244 237 269 233 274 356 236 173 159 134 217 238 182 257 288 260 241 251 262 189 145 136
331 280 328 51 73 330 314 303 287 346 321 311 277 259 290 316 301 255 264 273 236 335 273 194 222 298 294 60 280 195 197 176 125 106 232 102 289 330 104 85 71 134 137 130 129
14 351 331 36 76 58 315 274 333 332 302 345 273 289 321 308 278 281 280 294 306 299 277 225 203 212 244 338 179 276 207 171 132 123 242 89 343 360 46 96 93 113 121 129 125
23 347 206 316 333 332 280 264 325 341 298 292 280 297 318 301 301 262 296 300 300 274 207 148 231 207 244 260 268 272 265 217 188 155 183 186 82 336 14 94 113 120 113 110 114
51 13 343 292 293 307 339 313 315 322 274 289 272 311 310 285 279 296 304 299 284 23 35 344 255 236 258 237 233 233 248 261 222 161 113 118 80 305 7 305 101 104 112 109 110
304 307 238 272 306 334 268 337 308 314 286 250 298 310 303 281 303 285 276 273 256 249 199 213 243 250 284 141 166 228 217 200 176 143 136 153 174 69 8 125 111 109 103 107 106